Terminal Aerodrome Forecast
Issued by NWS

Home | Current Version | Previous Version | Text Only | Print | Product List | Glossary On
Versions: 1 2 3 4 5 6 7 8 9 10 11 12 13 14 15 16 17
000
FTUS43 KPAH 200524
TAFCGI
TAF
KCGI 200524Z 2006/2106 16006KT P6SM SCT035 BKN250
     FM201100 27014G22KT 6SM -SHRA VCTS BKN035CB
     FM201500 17008KT P6SM SCT050 BKN250
     FM202100 18008KT P6SM BKN050 PROB30 2022/2101 P6SM -TSRA
      BKN035CB=

USA.gov is the U.S. government's official web portal to all federal, state and local government web resources and services.